{"data":{"norad_id":58557,"epoch":"2026-05-25T05:21:21.664224Z","epoch_age_seconds":49082,"freshness":"FRESH","line1":"1 58557U 23194A   26145.22316741  .00006998  00000+0  29080-3 0  9996","line2":"2 58557  35.0007 201.8172 0005289 114.4629 245.6638 15.23101386136856","mean_motion":15.23101386,"eccentricity":0.0005289,"inclination_deg":35.0007,"raan_deg":201.8172,"arg_perigee_deg":114.4629,"mean_anomaly_deg":245.6638,"bstar":0.0002908,"rev_number":13685,"period_min":94.543936026594,"perigee_km":492.85653627644,"apogee_km":500.12851939098,"semimajor_km":6874.6295278337,"source":"CELESTRAK","updated_at":"2026-05-25T13:38:00.832427Z"}}